Location: Betz
(49.1556°N, 2.9558°E)
Time: 08:50:26
(UTC+00:00)

Cosmos 2333 - Pass Details

Date: 18 September 2019
Orbit: 831 x 865 km, 70.9° (Epoch: 13 October)

Event Time Altitude Azimuth Distance (km) Brightness Sun altitude
Rises 18:27:18 0° 330° (NNW) 3,402 8.0 -6.0°
Reaches altitude 10° 18:29:45 10° 329° (NNW) 2,468 7.3 -6.4°
Maximum altitude 18:35:25 79° 244° (WSW) 868 4.4 -7.3°
Drops below altitude 10° 18:41:06 10° 159° (SSE) 2,474 6.3 -8.2°
Sets 18:43:33 0° 158° (SSE) 3,411 7.0 -8.6°
